Regional Weather Roundup
Issued by NWS

Home | Current Version | Previous Version | Text Only | Print | Product List | Glossary On
Versions: 1 2 3 4 5 6 7 8 9 10 11 12 13 14 15 16 17 18 19 20 21 22 23 24 25 26 27 28 29 30 31 32 33 34 35 36 37 38 39 40 41 42 43 44 45 46 47 48 49 50
000
ASUS44 KFWD 090115
RWRTX
NORTH TEXAS HOURLY WEATHER ROUNDUP
NATIONAL WEATHER SERVICE FORT WORTH TX
700 PM CST THU DEC 08 2016

NOTE: "FAIR" INDICATES FEW OR NO CLOUDS BELOW 12,000 FEET WITH NO
SIGNIFICANT WEATHER AND/OR OBSTRUCTIONS TO VISIBILITY.

TXZ118-119-090200-
DALLAS/FORT WORTH METROPLEX

CITY           SKY/WX    TMP DP  RH WIND       PRES   REMARKS
DFW AIRPORT    CLOUDY    36  13  38 N10       30.63R WCI  28
DALLAS LOVE    CLOUDY    37  16  42 N9        30.64R WCI  30
FTW MEACHAM    CLOUDY    35  15  44 N7        30.65R WCI  29
DAL-EXECUTIVE  CLOUDY    36  16  44 N13       30.62R WCI  27
FTW-ALLIANCE   CLOUDY    34  15  46 N6        30.64R WCI  29
FTW-NAS-JRB    CLOUDY    36  15  42 N10       30.66R WCI  28
ARLINGTON      MOCLDY    36  16  44 NW12      30.64R WCI  28
ADDISON        CLOUDY    36  16  44 N9        30.64R WCI  29
MESQUITE       CLOUDY    36  16  44 NW9       30.64R WCI  29
LANCASTER      CLOUDY    38  24  56 N5        30.65R WCI  35
$$

TXZ091>094-102>105-117-120-121-131>134-090200-
NORTH CENTRAL TEXAS

CITY           SKY/WX    TMP DP  RH WIND       PRES   REMARKS
SHRMAN/DENISON CLEAR     32  14  47 N9        30.65R WCI  24
GAINESVILLE    CLEAR     28  14  56 N6        30.66R WCI  21
BOWIE          CLEAR     28  17  63 NW3       30.65R
BRIDGEPORT     CLOUDY    32  17  53 N8        30.68R WCI  25
DECATUR        CLOUDY    31  12  44 N6        30.64R WCI  26
DENTON         CLOUDY    34  16  47 N12       30.65R WCI  25
MCKINNEY       CLOUDY    34  15  46 N7        30.63R WCI  28
BONHAM         PTCLDY    30  14  51 N5        30.63R WCI  25
GREENVILLE       N/A     34  19  55 N3        30.62R
ROCKWALL       CLOUDY    35  17  47 N6        30.63R WCI  30
TERRELL        MOCLDY    35  14  42 N9        30.63R WCI  28
WAXAHACHIE     CLOUDY    34  20  57 N7        30.64R WCI  28
CLEBURNE       CLOUDY    34  16  47 N10       30.65R WCI  26
GRANBURY       CLOUDY    35  19  52 NW6       30.67R WCI  30
$$

TXZ083>090-098>101-113>116-127>130-139>142-154-155-090200-
WESTERN NORTH TEXAS

CITY           SKY/WX    TMP DP  RH WIND       PRES   REMARKS
WICHITA FALLS  PTCLDY    25  14  63 N8        30.67R WCI  16
WF-KICKAPOO    CLEAR     30  11  45 NW5       30.68R WCI  25
VERNON         MOCLDY    29  13  50 N3        30.68R
ABILENE        CLOUDY    29  18  63 N9        30.63R WCI  20
ABILENE-DYESS  MOCLDY    29  18  61 NE9       30.62R WCI  21
CISCO          CLOUDY    30  18  59 N8        30.62R WCI  23
BRECKENRIDGE   CLOUDY    32  16  51 N3        30.66R
GRAHAM         CLEAR     29  17  61 CALM      30.65R
MINERAL WELLS  CLOUDY    32  16  51 NW6       30.65R WCI  26
STEPHENVILLE   CLOUDY    31  18  59 N9        30.65R WCI  23
COMANCHE       CLOUDY    31  22  69 N9        30.64R WCI  23
BROWNWOOD      CLOUDY    32  18  55 N9        30.64R WCI  24
COLEMAN        CLOUDY    30  21  68 N6        30.63R WCI  24
$$

TXZ143>147-156>162-174-175-090200-
CENTRAL TEXAS

CITY           SKY/WX    TMP DP  RH WIND       PRES   REMARKS
WACO           CLOUDY    35  20  54 N13       30.64R WCI  26
WACO-MCGREGOR  CLOUDY    34  21  59 N9        30.65R WCI  27
HILLSBORO      CLOUDY    34  22  61 N10       30.63R WCI  26
CORSICANA      FLURRIES  35  19  52 N10       30.63R WCI  27
MEXIA          CLOUDY    33  18  53 N8        30.60R WCI  27
HEARNE         CLOUDY    37  22  55 NW12G20   30.62R WCI  29
CAMERON        CLOUDY    37  22  55 N14       30.62R WCI  28
TEMPLE         CLOUDY    34  20  56 MISG      30.63R
KILLEEN        CLOUDY    33  21  60 N13       30.60R WCI  24
KILLEEN-SKYLRK CLOUDY    34  19  54 N14       30.63R WCI  25
FORT HOOD      CLOUDY    34  20  56 N15       30.60R WCI  24
GATESVILLE     CLOUDY    34  21  60 N9        30.65R WCI  26
HAMILTON       CLOUDY    32  21  64 N8        30.62R WCI  25
LAMPASAS       CLOUDY    33  22  65 N8        30.60R WCI  25
$$

TXZ095>097-106>112-122>126-135>138-148>153-164>167-090200-
EAST TEXAS

CITY           SKY/WX    TMP DP  RH WIND       PRES   REMARKS
PARIS          PTCLDY    30  16  55 N6        30.62R WCI  24
SULPHUR SPRNGS CLOUDY    36  19  50 N9        30.63R WCI  29
MOUNT PLEASANT CLOUDY    36  17  46 NW7       30.62R WCI  31
GILMER         CLOUDY    35  17  48 N9        30.59R WCI  28
MINEOLA        CLOUDY    36  18  48 N6        30.60R WCI  31
TYLER          MOCLDY    35  18  49 N8        30.59R WCI  29
LONGVIEW       CLOUDY    37  22  54 N8        30.56R WCI  31
MARSHALL       CLOUDY    36  23  58 N8        30.59R WCI  30
ATHENS         MOCLDY    34  18  51 N7        30.59R WCI  28
PALESTINE      CLOUDY    36  24  62 NW3       30.61R
JACKSONVILLE   CLOUDY    36  24  63 N5        30.57R WCI  32
HENDERSON      CLOUDY    37  22  56 N9        30.59R WCI  30
CENTER         CLOUDY    41  27  57 N10       30.56R WCI  35
NACOGDOCHES    CLOUDY    39  27  60 N9        30.54R WCI  33
LUFKIN         CLOUDY    40  30  67 N7        30.54R WCI  35
$$

SUPPLEMENTAL OBSERVATIONS (CENTRAL)

CITY           SKY/WX    TMP DP  RH WIND       PRES   REMARKS
DENISON DAM      N/A     34  10  37 N13         N/A  WCI  25
PAT MAYSE LAKE   N/A     32  14  47 NW7         N/A  WCI  26
GREENVILLE       N/A     34  18  51 VRB7        N/A  WCI  28
CEDAR HILL       N/A     36  18  48 N7G15       N/A  WCI  30
ATHENS           N/A     34  19  55 N2G10       N/A
LAKE LIMESTONE   N/A     36  23  60 N10         N/A  WCI  28
$$

SUPPLEMENTAL OBSERVATIONS (WEST)

CITY           SKY/WX    TMP DP  RH WIND       PRES   REMARKS
MILLERS CREEK    N/A     28  19  69 N3          N/A
COMANCHE         N/A     32  23  69 N10         N/A  WCI  24
HAMBY            N/A     30  19  64 N8          N/A  WCI  23
IVIE RESERVOIR   N/A     32  21  64 NE7         N/A  WCI  26
COLORADO BEND    N/A     32  21  64 NE6         N/A  WCI  26
$$

SUPPLEMENTAL OBSERVATIONS (EAST)

CITY           SKY/WX    TMP DP  RH WIND       PRES   REMARKS
CLARKSVILLE      N/A     32  18  55 NW5         N/A  WCI  27
TEXARKANA        N/A     36  18  48 NW3         N/A
LINDEN           N/A     36  21  55 N1          N/A
CADDO LAKE       N/A    N/A N/A N/A N3          N/A
GILMER           N/A     37  19  48 N8          N/A  WCI  31
HENDERSON        N/A     37  23  56 N8          N/A  WCI  31
LUFKIN           N/A     41  30  65 MISG        N/A
N SABINE NF      N/A     39  30  70 MISG        N/A
S SABINE NF      N/A     43  32  65 NW3G13      N/A
$$

SUPPLEMENTAL OBSERVATIONS ARE A COLLECTION OF AUTOMATED INSTRUMENTS
THAT ARE MAINTAINED BY A VARIETY OF FEDERAL AND STATE AGENCIES.
CERTAIN ELEMENTS...SUCH AS HUMIDITY VALUES AND SUSTAINED WIND
SPEEDS...MAY BE APPROXIMATED.





USA.gov is the U.S. government's official web portal to all federal, state and local government web resources and services.